Weather in Kediri

Indonesia     7°49′16″S   111°59′56″E
temp.,
°C
wind,
m/s
gust,
m/s
humid.,
%
clouds,
%
prec.,
mm/h
press.,
hPa
HPBL,
m
26 september, sun
sun2601:00+24ssw588860 0.8 1010347
04:00+23ssw489077 0.6 1009326
07:00+25ssw5781100 1.4 1011484
10:00+30s335690 0.0 10101326
13:00+30ssw666092 0.2 10071039
16:00+28s776660 0.5 1007903
19:00+25ssw698091 0.7 1010518
22:00+24ssw6108558 0.0 1011458
27 september, mon
mon2701:00+23ssw6108563 0.1 1010429
04:00+23ssw6108262 0.0 1009435
07:00+25s7107029 0.0 1010714
10:00+31sse554768 0.0 10101470
13:00+34ssw543940 0.0 10062235
16:00+28ssw9105949 0.0 1006818
19:00+24ssw8117498 0.0 1010590
22:00+24ssw7107691 0.0 1011548
28 september, tue
tue2801:00+23ssw6107799 0.0 1009489
04:00+23ssw7117767 0.0 1009556
07:00+25ssw8106999 0.0 1011726
10:00+31s664798 0.0 10101274
13:00+33ssw7541100 0.0 10071883
16:00+28s895762 0.0 1007874
19:00+24ssw8117850 0.0 1010534
22:00+24ssw7108283 0.0 1011480
29 september, wed
wed2901:00+23ssw6108493 0.0 1009454
04:00+23ssw6108490 0.0 1009442
07:00+26s797537 0.1 1011588
10:00+32s544970 0.0 10111462
13:00+32ssw765299 0.0 10081179
16:00+29s896275 0.0 1007857
19:00+24ssw71182100 0.0 1010456
22:00+24ssw588499 0.0 1011381
30 september, thu
thu3001:00+23ssw5786100 0.0 1009319
04:00+23ssw5888100 0.0 1009311
07:00+26ssw6775100 0.0 1011513
10:00+32s545081 0.0 10101391
13:00+33ssw654699 0.0 10071226
16:00+30s765566 0.0 1007931
19:00+25ssw697886 0.0 1010386
22:00+24ssw588294 0.0 1011340